Tracking 19149 objects as of 20-Apr-2018
HD Live streaming from Space Station
objects crossing your sky now

MAQSAT H

Track MAQSAT H now!
10-day predictions
MAQSAT H is classified as:


NORAD ID: 25023
Int'l Code: 1997-066A
Perigee: 580.1 km
Apogee: 26,410.2 km
Inclination: 7.5 °
Period: 464.4 minutes
Semi major axis: 19866 km
RCS: 21.0323 m2 (large)
Launch date: October 30, 1997
Source: European Space Agency (ESA)
Launch site: FRENCH GUIANA (FRGUI)
aabbcc
Your satellite tracking list
Your tracking list is empty




NASA's NSSDC Master Catalog

Two Line Element Set (TLE):
1 25023U 97066A   18109.74840934 -.00000241  00000-0 -15062-2 0  9993
2 25023   7.4953 205.0536 6501045 114.0583 304.7173  3.10050523231444
Source of the keplerian elements: AFSPC